sat.trackr.live / text

‹ back to catalog

STARLINK-30707

NORAD 57949 · 2023-148Q

PAYLOAD ACTIVE UNKNOWN

§ Identity

Operator
Country
US
Launch date
2023-09-25
Launch site
AFWTR
Launch vehicle
Mass (kg)
RCS (m²)

Purposes: comms

External: N2YO · Heavens-Above · Gunter

§ Orbital elements

Epoch: 2026-09-20T10:37:51.722400Z

Period
93.85 min
Inclination
53.1614°
Eccentricity
0.0001447
Mean motion
15.34391827 rev/d
Perigee alt
461.7 km
Apogee alt
463.7 km
Semi-major
6,840.9 km
B*
8.2520e-5
RAAN
195.8655°
Arg perigee
60.0912°
Mean anomaly
300.0234°
Rev number
16,829

§ Raw data

STARLINK-307071 57949U 23148Q   26263.44295975  .00002412  00000+0  82520-4 0  99952 57949  53.1614 195.8655 0001447  60.0912 300.0234 15.34391827168290

JSON: /api/v1/satellites/57949 · /tle

For live sub-satellite position, see the globe view (requires WebGL).

§ Visibility from observer

Set your observer location to see the next 7 days of passes ≥ 10°. The values pass through the URL so the page stays shareable.

No JS? Fill the form by hand. The geolocation button needs JavaScript.